Find Starlink 1727

NORAD ID: 46335 Int'l Des: 2020-062 Owner: SPXS Country: US Constellation: starlink operational
LEOCIRCULAR

リアルタイム位置

3D地球を読み込み中...

Starlink 1727について

説明を読み込み中...

次回通過

Passes for default location (London). Set your location on the main map for personalized predictions.

高度履歴

Loading altitude history...

軌道要素

1 46335U 20062L 26126.66668981 .00368801 62897-4 10876-2 0 9994
2 46335 53.0341 45.8967 0008297 143.5352 37.6983 15.92069434 6024
Epoch: May 6, 2026 • Age: 4 hours

現在のステータス

高度 294.0 km
速度 7.74 km/s
衛星直下点 38.45°N, 19.29°E
打ち上げ日 Sep 3, 2020
運用期間 5.6 years
タイプ internet

技術仕様

分類 Payload
質量 260.00 kg
乾燥質量 248.00 kg
総質量 260.00 kg
長さ 0.20 m
直径 2.80 m
スパン 9.00 m
形状 Box + pan
製造者 SPXS
バスタイプ Starlink
フェーズステータス In Orbit
所有者/国 SPXS/US

Most Searched